Probability
0 0 0 1 1 1 0 0 0 0 0 0 0 0 0 0 0 0 0 1 4 4 4 3 4 4 4 3 1 0 0 0 0 0 0 0 0 0 0 0 0 0 0
0 0 0 0 1 1 0 0 0 0 0 0 0 0 0 0 0 0 0 1 3 4 5 5 5 5 4 4 3 2 1 1 1 1 0 1 1 0 0 0 0 0 0
1 1 0 0 0 0 0 0 0 0 0 0 0 0 0 0 0 0 0 0 1 3 5 6 6 6 5 4 5 4 4 3 3 2 2 2 2 1 0 0 0 1 1
2 1 0 0 0 0 0 0 0 0 0 0 0 0 0 0 0 0 0 0 0 1 3 5 6 6 5 5 5 5 5 5 4 3 3 3 2 1 0 0 0 1 1
3 2 1 1 2 1 0 0 0 0 0 0 0 0 0 1 1 1 0 0 0 0 0 2 3 5 6 6 5 5 5 5 5 4 3 3 2 1 0 0 0 0 1
2 2 3 3 3 2 0 0 0 0 0 0 0 0 0 1 2 2 1 0 0 0 0 0 1 2 4 6 5 5 4 4 4 4 4 4 3 2 1 0 0 0 1
2 3 4 5 4 2 1 0 0 0 0 0 0 0 0 1 1 1 1 0 0 0 0 0 0 0 2 3 3 4 4 4 4 4 5 5 4 3 2 1 0 0 0
2 4 6 5 3 2 2 1 1 0 0 0 0 0 0 0 0 0 0 0 0 0 0 0 0 0 0 1 1 2 4 5 5 6 6 6 5 3 3 2 1 0 0
4 5 6 4 3 3 3 3 2 1 1 0 0 0 1 1 1 1 0 0 0 0 0 0 0 0 0 0 0 0 2 3 5 6 7 8 7 5 3 2 1 1 0
4 5 5 4 3 3 3 3 3 3 2 1 0 1 2 2 2 2 1 0 0 0 0 0 0 0 0 0 0 0 0 1 3 5 6 8 8 6 3 1 1 2 1
4 4 4 3 3 3 3 3 3 3 3 1 0 1 2 3 3 3 1 0 0 0 0 0 0 0 0 0 0 0 0 0 1 2 4 6 7 6 3 2 3 3 3
3 3 4 3 3 3 3 3 3 4 4 3 2 2 3 3 3 3 2 1 0 0 0 0 0 0 0 0 0 0 0 0 0 1 2 4 5 6 5 5 6 5 5
3 4 5 4 3 3 3 4 4 5 6 5 5 5 5 4 4 3 3 2 1 0 0 0 0 0 0 0 0 0 0 0 0 0 1 2 4 5 6 6 7 7 7
5 5 5 5 4 3 4 5 6 6 6 6 6 6 6 6 4 3 2 2 1 0 0 0 0 0 0 0 0 0 0 0 0 0 0 1 1 3 3 5 6 6 6
7 6 5 5 4 3 4 5 6 6 6 6 6 6 6 5 3 1 1 1 0 0 0 0 0 0 0 0 0 0 0 0 0 0 0 0 0 1 1 3 4 4 3
8 7 5 4 4 4 4 4 5 6 6 6 6 5 5 3 1 0 0 0 0 0 0 0 0 0 0 0 0 0 0 0 0 0 0 0 0 0 0 1 1 1 1
9 8 7 7 7 6 5 5 6 6 6 6 5 4 4 2 0 0 0 0 0 0 0 0 0 0 0 0 0 0 0 0 0 0 0 0 0 0 0 0 0 0 0
10 10 9 10 11 10 8 7 7 6 6 5 4 3 3 1 0 0 0 0 0 0 0 0 0 0 0 0 0 0 0 0 0 0 0 0 0 0 0 0 0 0 0
12 11 11 11 12 11 8 7 6 5 4 5 4 3 2 1 0 0 0 0 0 0 0 0 0 0 0 0 0 0 0 0 0 0 0 0 0 0 0 0 0 0 0
14 13 11 11 10 9 7 5 3 2 2 3 4 2 1 0 0 0 0 0 0 0 0 0 0 0 0 0 0 0 0 0 0 0 0 0 0 0 0 0 0 0 0
15 13 11 10 9 7 5 3 1 0 1 2 2 1 0 0 0 0 0 0 0 0 0 0 0 0 0 0 0 0 0 0 0 0 0 0 0 0 0 0 0 0 0
14 12 9 8 8 7 3 2 1 1 0 0 0 0 0 0 0 0 0 0 0 0 0 0 0 0 0 0 0 0 0 0 0 0 0 0 0 0 0 0 0 0 0
11 11 9 7 7 6 2 1 1 1 0 0 0 0 0 0 0 0 0 0 0 0 0 0 0 0 0 0 0 0 0 0 0 0 0 0 0 0 0 0 0 0 0
9 10 9 8 6 4 1 0 0 0 0 0 0 0 0 0 0 0 0 0 0 0 0 0 0 0 0 0 0 0 0 0 0 0 0 0 0 0 0 0 0 0 0
9 9 9 9 7 5 2 0 0 0 0 0 0 0 0 0 0 0 0 0 0 0 0 0 0 0 0 0 0 0 0 0 0 0 0 0 0 0 0 0 0 0 0
8 9 10 9 9 6 2 0 1 1 1 0 0 0 0 0 0 0 0 0 0 0 0 0 0 0 0 0 0 0 0 0 0 0 0 0 0 0 0 0 0 0 0
Wind_Speed
1 1 1 1 1 1 2 1 1 1 1 2 2 3 3 3 2 2 2 7 8 8 9 9 9 8 8 7 6 6 6 6 6 6 6 7 7 8 8 8 8 9 9
1 2 2 1 1 2 2 2 2 2 1 1 2 2 2 3 3 2 2 4 8 9 8 8 8 8 8 7 7 6 6 6 6 6 6 7 7 8 8 8 8 8 9
2 2 2 1 1 1 2 2 2 2 1 1 1 1 1 2 3 3 2 2 3 7 8 7 8 8 8 7 7 7 6 6 6 5 5 6 7 8 8 8 8 9 9
2 2 2 1 1 2 2 2 2 2 1 1 1 1 1 1 1 2 2 2 2 2 5 7 7 7 7 7 7 7 7 6 6 5 5 5 6 7 8 8 8 8 9
3 3 2 1 2 2 2 2 2 2 2 1 0 1 1 1 1 2 1 2 2 2 2 5 7 7 7 7 7 7 7 6 6 6 5 5 4 6 7 8 8 7 8
2 2 2 1 2 2 2 2 2 1 1 1 1 1 0 1 1 2 3 2 2 3 3 3 3 4 7 7 7 7 7 7 7 6 6 5 5 5 6 6 7 7 7
2 2 2 1 2 2 2 2 2 2 1 1 2 2 2 1 0 1 1 2 2 2 2 2 2 1 2 5 6 7 7 7 7 6 6 6 6 5 5 6 6 7 6
2 2 2 2 2 2 2 2 3 2 1 1 2 2 2 3 2 1 0 2 2 1 2 2 2 2 2 1 3 6 6 7 7 7 7 7 7 7 7 7 7 7 7
2 2 2 2 2 2 2 2 3 3 2 1 2 3 2 2 1 2 1 1 1 1 2 2 2 2 3 2 2 4 6 6 7 8 7 7 7 7 8 8 7 7 6
2 2 2 2 2 2 2 2 2 2 3 1 1 1 2 3 2 1 2 1 1 1 2 2 2 3 3 2 3 4 5 6 6 7 6 6 7 8 8 8 7 7 6
2 2 2 2 2 1 2 2 2 2 2 2 2 1 1 0 1 2 2 1 1 1 1 2 2 2 3 3 3 4 5 6 6 6 6 6 7 7 7 7 6 6 6
1 1 2 2 2 2 2 2 2 2 2 2 1 1 2 2 2 2 2 1 1 1 0 0 1 2 2 2 3 5 5 5 5 4 4 4 5 6 6 6 5 5 5
1 2 2 2 2 2 2 2 2 1 1 2 1 1 1 2 2 2 2 1 1 1 0 0 1 1 2 1 2 4 5 5 4 4 4 4 4 5 6 5 4 4 4
3 2 2 2 2 2 2 2 1 1 1 1 1 1 1 1 1 2 2 2 1 0 1 1 1 1 1 2 2 3 2 4 4 4 4 4 4 5 5 4 4 3 3
2 2 2 2 2 2 2 2 1 1 1 1 1 1 0 0 0 1 1 2 3 2 2 1 1 2 2 2 3 2 2 3 5 5 5 5 4 5 5 4 4 3 3
2 2 2 2 2 2 2 2 2 1 1 1 1 1 1 0 1 1 1 1 2 3 2 2 2 2 2 2 3 2 2 4 5 5 5 5 5 5 5 5 4 4 4
3 3 3 3 3 2 2 2 2 2 2 1 0 1 1 1 1 1 1 1 1 2 2 1 1 1 1 1 1 1 1 2 2 4 5 5 5 5 5 5 5 5 4
3 3 3 3 3 2 2 2 3 2 2 2 1 1 1 1 2 1 1 1 1 1 2 1 0 0 0 1 1 1 1 1 1 3 4 4 4 4 4 4 4 4 4
3 3 3 2 2 2 2 2 2 2 2 2 2 2 1 2 2 1 2 1 1 2 2 2 0 0 0 0 1 1 1 0 1 1 3 4 4 4 4 4 4 5 5
3 3 3 3 2 2 2 2 2 2 1 1 2 2 2 2 2 1 1 1 2 2 2 2 1 1 1 1 1 1 1 1 1 0 0 1 2 3 4 5 5 6 6
4 3 3 2 2 2 2 2 3 3 2 1 1 1 1 2 2 2 1 1 2 2 2 2 1 1 1 1 0 1 1 0 1 0 0 1 0 1 2 4 6 6 7
3 3 3 3 2 2 2 3 4 3 3 2 2 1 1 1 1 2 2 3 3 3 2 2 1 1 1 1 1 1 1 0 1 1 0 1 1 2 2 2 4 6 7
3 3 3 3 2 2 3 4 4 3 3 2 2 2 1 1 1 1 1 2 2 2 4 4 3 2 2 2 2 1 1 2 2 2 1 1 1 2 2 3 5 5 6
3 3 2 2 2 1 3 4 4 3 3 2 2 3 2 1 1 2 2 1 1 1 1 2 3 3 3 3 3 3 3 1 1 1 1 1 2 2 2 2 4 5 5
3 3 3 3 2 1 2 4 4 2 2 1 1 1 2 2 1 3 3 2 0 1 1 0 1 1 2 2 2 2 1 1 1 2 1 1 1 1 1 2 2 4 5
3 3 3 3 3 3 3 3 4 3 2 1 0 1 1 2 2 3 3 3 2 2 1 2 2 2 1 1 1 3 3 2 1 2 2 1 1 0 1 2 1 1 2
Wind_Direction
182 187 185 178 180 164 152 146 143 144 131 126 137 142 150 155 167 175 176 169 170 176 174 173 175 175 173 175 175 177 179 180 179 175 173 176 178 182 185 184 181 180 179
168 172 162 167 179 175 161 149 155 144 135 127 134 148 155 161 164 170 181 180 175 177 182 183 179 177 183 184 183 183 184 183 182 182 181 183 186 188 189 187 189 188 187
151 145 143 150 165 147 131 119 122 112 108 103 121 149 150 159 163 166 170 180 186 190 189 187 186 188 191 193 190 189 188 187 185 185 187 186 190 192 190 195 198 195 195
140 133 130 152 151 126 119 128 125 107 100 105 121 158 147 146 165 172 170 176 189 193 194 194 192 195 195 194 194 195 195 195 193 186 184 186 190 193 196 201 201 203 203
135 129 139 149 133 125 123 140 123 127 124 114 146 140 143 164 183 186 189 205 197 192 196 199 200 198 200 201 203 205 202 197 193 192 190 190 189 192 198 205 206 210 212
133 129 136 130 126 125 120 118 129 121 134 148 130 48 19 208 182 189 207 211 196 194 193 202 199 206 206 209 208 208 206 204 202 201 198 197 195 194 197 199 199 202 210
136 130 134 125 129 138 145 139 126 126 124 105 78 28 352 346 298 223 208 180 196 199 176 188 185 189 212 208 208 209 209 207 208 205 204 202 199 196 196 197 201 202 202
144 147 129 137 140 131 128 133 123 124 168 139 125 95 10 348 334 304 199 176 195 176 171 184 174 178 194 197 210 211 215 216 216 217 218 215 211 209 207 204 208 207 205
151 140 146 139 141 144 153 154 150 146 177 225 154 147 157 220 291 320 291 219 186 178 197 193 183 186 189 185 206 218 216 217 221 222 221 221 221 215 211 210 211 209 209
160 151 147 145 148 153 162 179 160 161 157 182 230 202 185 172 169 277 309 306 234 201 207 207 198 194 189 187 197 204 210 213 221 225 225 223 219 212 208 208 209 209 213
178 170 155 153 162 166 171 163 147 155 160 172 186 187 169 173 166 166 250 290 321 276 218 200 195 197 196 193 199 210 211 213 222 230 228 222 215 206 198 199 202 209 212
199 191 167 171 178 177 169 171 165 158 168 171 181 176 171 173 190 175 203 229 245 279 267 178 196 200 203 200 210 200 202 204 211 220 216 204 196 190 184 187 199 212 213
207 213 186 186 184 183 173 167 159 168 170 172 191 207 205 202 187 176 165 190 215 268 340 291 229 203 197 200 222 201 203 200 203 204 199 189 175 172 174 178 190 203 210
205 195 177 180 179 176 171 161 157 193 176 185 200 204 212 241 189 168 163 154 156 317 337 272 275 220 200 192 205 191 206 193 195 197 193 189 179 176 177 180 186 192 200
191 176 170 173 175 168 165 163 175 195 178 201 190 173 160 285 130 155 160 162 161 180 234 249 243 237 213 195 203 199 208 200 196 195 194 195 195 195 193 192 196 197 197
179 172 178 181 176 169 164 165 182 189 163 216 174 116 93 42 51 53 121 154 160 163 193 231 226 230 209 201 201 203 217 208 205 199 197 199 201 203 202 201 202 205 208
175 183 182 178 177 181 181 169 182 181 175 191 185 134 120 94 79 56 62 85 113 130 159 252 246 226 164 202 197 205 216 220 218 203 196 199 202 206 210 211 215 218 218
173 176 170 171 175 177 183 177 186 188 180 176 176 121 103 97 77 72 70 68 78 119 143 179 279 347 233 213 180 168 194 206 205 211 202 204 205 208 213 219 224 223 223
156 150 148 158 166 171 169 171 170 178 191 179 147 125 116 101 76 65 72 77 74 79 97 124 133 316 347 21 72 69 82 23 206 202 205 208 213 217 220 226 228 229 229
156 157 158 166 164 156 152 160 149 120 110 118 130 128 132 141 144 116 90 84 94 83 82 92 84 27 4 346 77 79 22 332 292 310 44 194 211 224 231 231 231 231 228
164 159 149 144 141 143 159 152 148 132 129 111 101 113 132 133 128 130 123 126 114 107 97 92 82 50 12 22 255 227 191 272 298 308 20 301 229 240 245 243 237 234 228
154 143 151 145 138 147 148 140 144 144 141 137 132 118 131 128 114 104 112 129 135 142 147 137 150 168 222 227 223 186 168 104 293 274 155 276 204 239 246 235 239 234 229
144 141 152 144 140 159 154 141 133 135 134 138 147 150 152 118 121 107 76 71 72 129 158 161 168 203 209 210 187 188 196 193 222 234 152 263 266 252 252 250 238 228 224
147 150 144 142 139 138 140 137 132 114 120 138 157 160 151 147 129 140 132 93 31 330 205 179 190 215 218 210 194 191 194 201 278 262 150 211 261 260 275 265 241 224 223
147 147 146 147 138 117 139 157 141 122 122 140 173 158 159 183 224 139 132 136 54 312 318 310 208 229 249 233 174 121 103 99 314 281 213 180 247 275 282 276 268 242 234
157 151 148 165 162 160 171 165 153 140 145 173 264 255 205 196 193 160 157 162 186 257 303 347 351 339 320 296 205 169 171 163 193 268 250 176 221 119 311 289 272 270 258